Current Weather Conditions by Major Hwy


I-84 West to East [Columbia River Gorge] 100 PM PDT WED JUN 20 2018 ELEVA CITY SKY/WX TMP DP RH WIND PRES REMARKS 10 ASTORIA, OR CLOUDY 62 57 83 W9 29.99S 20 KELSO SUNNY 81 61 50 NW6 29.92F 40 PORTLAND, OR MOSUNNY 84 56 38 W5 29.89F 30 TROUTDALE, OR SUNNY 86 60 41 VRB3 29.88F 240 THE DALLES, OR SUNNY 93 50 23 E7 29.89F HX 90 620 HERMISTON, OR SUNNY 89 50 26 NW5 29.92F 1,480 PENDLETON, OR SUNNY 87 49 26 VRB7 29.95F 2,710 LA GRANDE SUNNY 80 57 45 CALM 30.04F 3,370 BAKER CITY MOSUNNY 83 50 31 VRB5 30.06F 2,190 ONTARIO SUNNY 82 55 39 S7 30.05F
I-90 West to East 100 PM PDT WED JUN 20 2018 ELEVA CITY SKY/WX TMP DP RH WIND PRES REMARKS 30 SEATAC AIRPORT PTSUNNY 79 58 48 W7 29.95F 1,730 ELLENSBURG PTSUNNY 84 51 31 VRB5 30.00F 1,200 MOSES LAKE SUNNY 87 52 29 SW9 29.97F 1,880 SPOKANE GEIGER MOSUNNY 80 46 30 VRB5 30.03F
I-82 North West to South East 100 PM PDT WED JUN 20 2018 ELEVA CITY SKY/WX TMP DP RH WIND PRES REMARKS 1,730 ELLENSBURG PTSUNNY 84 51 31 VRB5 30.00F 1,050 YAKIMA TC N/A 86 49 28 W6 29.95F 720 360 PASCO SUNNY 87 56 34 NW3 29.93F 620 HERMISTON, OR SUNNY 89 50 26 NW5 29.92F
Hwy97 North to South 100 PM PDT WED JUN 20 2018 ELEVA CITY SKY/WX TMP DP RH WIND PRES REMARKS 850 OMAK MOSUNNY 88 53 30 SW12G17 29.95F 630 WENATCHEE MOSUNNY 85 51 31 E8 29.96F 1,730 ELLENSBURG PTSUNNY 84 51 31 VRB5 30.00F 1,050 YAKIMA TC N/A 86 49 28 W6 29.95F 1,640 GOLDENDALE* SUNNY 93 50 23 E7 29.89F HX 90 *From Dallesport Airport Elev 240 3,080 REDMOND MOSUNNY 88 48 25 N10G17 30.00F 4,100 KLAMATH FALLS MOSUNNY 80 47 31 VRB3 30.05F
I-5 North to South 100 PM PDT WED JUN 20 2018 ELEVA CITY SKY/WX TMP DP RH WIND PRES REMARKS 150 BELLINGHAM PTSUNNY 74 59 59 SW5 29.94F 100 ARLINGTON MOSUNNY 82 61 48 NW9 29.93F 610 EVERETT MOSUNNY 74 58 57 W7 29.96F 30 SEATAC AIRPORT PTSUNNY 79 58 48 W7 29.95F 200 OLYMPIA MOSUNNY 84 58 40 CALM 29.93F 20 KELSO SUNNY 81 61 50 NW6 29.92F 100 VANCOUVER SUNNY 84 59 42 W5 29.88F 40 PORTLAND MOSUNNY 84 56 38 W5 29.89F 200 SALEM MOSUNNY 83 57 41 NW8 29.91F 360 EUGENE PTSUNNY 75 58 55 SW12 29.96F 510 ROSEBURG SUNNY 79 57 46 N3 29.95F 1,300 MEDFORD SUNNY 88 50 27 VRB5 29.90F
Data from:
http://www.wrh.noaa.gov/sew/get.php?pil=RWR&sid=OR&version=0&format=printer
http://www.wrh.noaa.gov/sew/get.php?pil=RWR&sid=WA&version=0&format=printer

Current Observations

Washington State Current Weather Observations   …  Oregon State Current Weather Observation



48 Hour Forecast

Seattle  …  Vancouver  …  Portland
————————————————————————————————————————
Bend  …  Spokane  …  Richland  …  Pendleton  …  Blue Mountains I-84  …  Yakima
————————————————————————————————————————
Goldendale, Washington Higher Elevations  …  Dallesport Airport - Goldendale  …  Bingen - White Salmon - Hood River  …  Index


Top of Page